#timestamp,LO_Frequency,Hit 
1499518815.8,286046988.4,N
1499518835.6,286046986.2,N
1499518855.4,286046986.3,N
1499518875.3,286046984.2,N
1499518895.1,286046984.2,N
1499518896.0,286046984.2,N
1499518915.8,286046986.3,N
1499518935.7,286046984.1,N
1499518955.5,286046986.6,N
1499518975.3,286046986.2,N
1499518995.1,286046986.3,N
1499519015.9,286046984.1,N
1499519035.7,286046986.2,N
1499519055.5,286046986.8,N
1499519075.4,286046986.4,N
1499519095.2,286046983.9,N
1499519115.0,286046983.8,N
1499519115.9,286046983.8,N
1499519135.8,286046986.8,N
1499519155.6,286046986.3,N
1499519175.4,286046986.8,N
1499519195.3,286046986.6,N
1499519215.1,286046983.9,N
1499519235.8,286046984.4,N
1499519255.7,286046986.2,N
1499519275.5,286046984.8,N
1499519295.3,286046985.0,N
1499519315.2,286046984.4,N
1499519335.9,286046983.9,N
1499519355.7,286046982.5,N
1499519375.6,286046984.7,N
1499519395.4,286046983.7,N
1499519415.2,286046982.1,N
1499519435.0,286046984.3,N
1499519436.0,286046984.3,N
1499519455.8,286046985.0,N
1499519475.6,286046984.1,N
1499519495.4,286046982.4,N
1499519515.3,286046984.8,N
1499519535.1,286046982.7,N
1499519555.8,286046985.2,N
1499519575.7,286046982.3,N
1499519595.5,286046982.4,N
1499519615.3,286046982.8,N
1499519635.2,286046984.0,N
1499519655.9,286046984.6,N
1499519675.7,286046984.0,N
1499519695.6,286046983.0,N
1499519715.4,286046983.4,N
1499519735.2,286046981.8,N
1499519755.1,286046983.1,N
1499519756.0,286046983.1,N
1499519775.8,286046980.5,N
1499519795.6,286046982.8,N
1499519815.5,286046985.0,N
1499519835.3,286046982.8,N
1499519855.1,286046984.8,N
1499519875.8,286046982.3,N
1499519895.7,286046982.8,N
1499519915.5,286046985.2,N
1499519935.3,286046982.8,N
1499519955.2,286046982.6,N
1499519975.9,286046982.6,N
1499519995.7,286046982.6,N
1499520015.6,286046982.7,N
1499520035.4,286046985.2,N
1499520055.2,286046980.9,N
1499520075.1,286046982.0,N
1499520076.0,286046982.0,N
1499520095.8,286046981.7,N
1499520115.6,286046980.7,N
1499520135.5,286046982.4,N
1499520155.3,286046980.6,N
1499520175.1,286046979.1,N
1499520195.8,286046981.7,N
1499520215.7,286046983.6,N
1499520235.5,286046980.6,N
1499520255.3,286046982.9,N
1499520275.2,286046983.2,N
1499520295.9,286046980.5,N
1499520315.7,286046981.1,N
1499520335.6,286046983.6,N
1499520355.4,286046981.4,N
1499520375.2,286046983.5,N
1499520395.1,286046980.8,N
1499520396.0,286046980.8,N
1499520415.8,286046979.7,N
1499520435.6,286046979.2,N
1499520455.5,286046979.3,N
1499520475.3,286046979.4,N
1499520495.1,286046979.3,N
1499520515.8,286046981.7,N
1499520535.7,286046979.5,N
1499520555.5,286046979.3,N
1499520575.3,286046979.1,N
1499520595.2,286046979.2,N
1499520615.9,286046981.5,N
1499520635.7,286046979.4,N
1499520655.6,286046979.6,N
1499520675.4,286046978.5,N
1499520695.2,286046977.5,N
1499520715.1,286046977.3,N
1499520716.0,286046977.3,N
1499520735.8,286046979.6,N
1499520755.6,286046977.8,N
1499520775.5,286046978.5,N
1499520795.3,286046979.6,N
1499520815.1,286046979.0,N
1499520835.8,286046979.2,N
1499520855.7,286046979.8,N
1499520875.5,286046980.2,N
1499520895.3,286046979.1,N
1499520915.2,286046981.7,N
1499520935.0,286046979.6,N
1499520935.9,286046979.6,N
1499520955.7,286046979.4,N
1499520975.6,286046979.4,N
1499520995.4,286046979.3,N
1499521015.2,286046979.8,N
1499521035.1,286046979.6,N
1499521036.0,286046979.6,N
1499521055.8,286046977.5,N
1499521075.6,286046980.2,N
1499521095.5,286046977.8,N
1499521115.3,286046977.8,N
1499521135.1,286046978.0,N
1499521155.9,286046977.3,N
1499521175.7,286046977.6,N
1499521195.5,286046980.4,N
1499521215.4,286046978.3,N
1499521235.2,286046978.2,N
1499521255.0,286046976.3,N
1499521255.9,286046976.3,N
1499521275.8,286046976.0,N
1499521295.6,286046978.3,N
1499521315.4,286046977.9,N
1499521335.2,286046977.9,N
1499521355.1,286046978.1,N
1499521356.0,286046978.1,N
1499521375.8,286046978.6,N
1499521395.6,286046976.8,N
1499521415.5,286046974.1,N
1499521435.3,286046975.8,N
1499521455.1,286046977.5,N
1499521475.9,286046977.3,N
1499521495.7,286046980.1,N
1499521515.5,286046979.6,N
1499521535.4,286046980.0,N
1499521555.2,286046979.9,N
1499521575.0,286046977.5,N
1499521575.9,286046977.5,N
1499521595.8,286046978.4,N
1499521615.6,286046978.6,N
1499521635.4,286046977.0,N
1499521655.3,286046978.6,N
1499521675.1,286046978.0,N
1499521676.0,286046978.0,N
1499521695.8,286046977.3,N
1499521715.7,286046979.6,N
1499521735.5,286046979.2,N
1499521755.3,286046980.1,N
1499521775.2,286046980.4,N
1499521795.9,286046980.2,N
1499521815.7,286046978.9,N
1499521835.5,286046980.2,N
1499521855.4,286046977.9,N
1499521875.2,286046978.5,N
1499521895.0,286046978.0,N
1499521895.9,286046978.0,N
1499521915.8,286046977.7,N
1499521935.6,286046978.5,N
1499521955.4,286046978.5,N
1499521975.3,286046977.4,N
1499521995.1,286046979.6,N
1499522015.8,286046979.9,N
1499522035.7,286046979.6,N
1499522055.5,286046977.9,N
1499522075.3,286046978.1,N
1499522095.2,286046977.7,N
1499522115.9,286046978.0,N
1499522135.7,286046977.8,N
1499522155.6,286046977.4,N
1499522175.4,286046977.7,N
1499522195.2,286046977.6,N
1499522215.0,286046977.9,N
1499522216.0,286046977.9,N
1499522235.8,286046978.4,N
1499522255.6,286046976.1,N
1499522275.4,286046978.2,N
1499522295.3,286046978.3,N
1499522315.1,286046978.7,N
1499522335.8,286046978.6,N
1499522355.7,286046980.0,N
1499522375.5,286046980.1,N
1499522395.3,286046978.0,N
